Regional Weather Roundup
Issued by NWS

Home | Current Version | Previous Version | Graphics & Text | Print | Product List | Glossary On
Versions: 1 2 3 4 5 6 7 8 9 10 11 12 13 14 15 16 17 18 19 20 21 22 23 24 25 26 27
000
ASUS45 KCYS 252210
RWRWY

WYOMING REGIONAL WEATHER ROUNDUP
NATIONAL WEATHER SERVICE CHEYENNE WY
400 PM MDT MON SEP 25 2017

NOTE:  "FAIR" INDICATES FEW OR NO CLOUDS BELOW 12,000 FEET
WITH NO SIGNIFICANT WEATHER AND/OR OBSTRUCTIONS TO VISIBILITY.

WYZ001-252300-
YELLOWSTONE NATIONAL PARK

CITY           SKY/WX    TMP DP  RH WIND       PRES   REMARKS
LK YELLOWSTONE NOT AVBL
W YELLOWSTONE  NOT AVBL

$$
WYZ002>013-054>058-071-098>099-252300-
NORTHERN WYOMING

CITY           SKY/WX    TMP DP  RH WIND       PRES   REMARKS
JACKSON        CLOUDY    46  27  47 SW5       30.13R
CODY           PTSUNNY   50  35  56 CALM      30.08S HAZE
GREYBULL       PTSUNNY   51  41  68 VRB5      30.07S
WORLAND        FAIR      53  39  59 VRB3      30.06F
SHERIDAN       CLOUDY    51  39  63 N8        30.07S
BUFFALO        CLOUDY    45  38  76 CALM      30.09S
GILLETTE       CLOUDY    49  39  68 NW5       30.07S
HULETT         CLOUDY    46  41  81 N3        30.09S
NEWCASTLE      CLOUDY    50  36  57 S6        30.10S

$$
WYZ014>020-022>026-101>103-252300-
CENTRAL WYOMING

CITY           SKY/WX    TMP DP  RH WIND       PRES   REMARKS
BIG PINEY      LGT RAIN  40  35  83 W8        30.14R WCI  34
PINEDALE       CLOUDY    43  32  65 NW16      30.13R
DUBOIS         CLOUDY    41  30  65 NW13      30.09S
LANDER         PTSUNNY   50  34  54 CALM      30.08R
RIVERTON       PTSUNNY   50  33  52 VRB6      30.08S
CASPER         FAIR      51  35  54 W14       30.07S
DOUGLAS        FAIR      51  34  52 CALM      30.08S

$$
WYZ021-027>030-104>119-252300-
SOUTHERN WYOMING

CITY           SKY/WX    TMP DP  RH WIND       PRES   REMARKS
EVANSTON       CLOUDY    44  29  55 SW6       30.14S
FORT BRIDGER   CLOUDY    48  30  50 W9        30.17R
ROCK SPRINGS   CLOUDY    46  29  51 NW10      30.12S
DIXON          FAIR      51  29  42 W9        30.14S
RAWLINS        CLOUDY    44  32  62 W5        30.11S
SARATOGA       CLOUDY    46  30  53 S5        30.12S
LARAMIE        CLOUDY    48  30  49 N8        30.08S
CHEYENNE       PTSUNNY   54  34  46 S7        30.07S
TORRINGTON     FAIR      54  39  57 SE6       30.07S
PINE BLUFFS    FAIR      52  39  62 NE7       30.08S

$$




USA.gov is the U.S. government's official web portal to all federal, state and local government web resources and services.